Time,TemperatureF,DewpointF,PressureIn,WindDirection,WindDirectionDegrees,WindSpeedMPH,WindSpeedGustMPH,Humidity,HourlyPrecipIn,Conditions,Clouds,dailyrainin,SoftwareType,DateUTC
2013-04-30 00:02:00,72.3,61.2,29.04,WSW,238,6.0,17.0,68,0.00,,,0.00,meteohub,2013-04-30 05:02:00,
2013-04-30 00:07:00,72.3,61.2,29.04,South,176,10.0,17.0,68,0.00,,,0.00,meteohub,2013-04-30 05:07:00,
2013-04-30 00:12:00,72.3,61.2,29.04,South,179,2.0,17.0,68,0.00,,,0.00,meteohub,2013-04-30 05:12:00,
2013-04-30 00:17:00,72.1,61.0,29.04,South,185,9.0,17.0,68,0.00,,,0.00,meteohub,2013-04-30 05:17:00,
2013-04-30 00:22:00,72.1,61.3,29.04,SSE,168,3.0,17.0,69,0.00,,,0.00,meteohub,2013-04-30 05:22:00,
2013-04-30 00:27:00,72.0,61.2,29.04,SSW,197,4.0,17.0,69,0.00,,,0.00,meteohub,2013-04-30 05:27:00,
2013-04-30 00:32:00,72.0,61.2,29.04,SW,221,11.0,17.0,69,0.00,,,0.00,meteohub,2013-04-30 05:32:00,
2013-04-30 00:37:00,71.8,61.0,29.04,South,187,0.0,17.0,69,0.00,,,0.00,meteohub,2013-04-30 05:37:00,
2013-04-30 00:42:00,71.6,60.8,29.04,SSW,211,8.0,18.0,69,0.00,,,0.00,meteohub,2013-04-30 05:42:00,
2013-04-30 00:47:00,71.4,61.2,29.04,SW,217,5.0,18.0,70,0.00,,,0.00,meteohub,2013-04-30 05:47:00,
2013-04-30 00:52:00,71.4,61.2,29.04,SSW,196,3.0,15.0,70,0.00,,,0.00,meteohub,2013-04-30 05:52:00,
2013-04-30 00:57:00,71.2,61.3,29.04,SSW,196,8.0,15.0,71,0.00,,,0.00,meteohub,2013-04-30 05:57:00,
2013-04-30 01:02:00,71.2,61.3,29.04,SW,224,5.0,14.0,71,0.00,,,0.00,meteohub,2013-04-30 06:02:00,
2013-04-30 01:08:00,71.2,61.3,29.04,SSW,199,5.0,13.0,71,0.00,,,0.00,meteohub,2013-04-30 06:08:00,
2013-04-30 01:12:00,71.1,61.2,29.04,SSW,213,8.0,18.0,71,0.00,,,0.00,meteohub,2013-04-30 06:12:00,
2013-04-30 01:17:00,70.9,61.3,29.04,SSE,156,7.0,18.0,72,0.00,,,0.00,meteohub,2013-04-30 06:17:00,
2013-04-30 01:22:00,70.9,61.3,29.04,South,180,3.0,18.0,72,0.00,,,0.00,meteohub,2013-04-30 06:22:00,
2013-04-30 01:27:00,70.5,61.5,29.04,South,184,6.0,16.0,73,0.00,,,0.00,meteohub,2013-04-30 06:27:00,
2013-04-30 01:32:00,70.3,61.3,29.05,SW,221,14.0,17.0,73,0.00,,,0.00,meteohub,2013-04-30 06:32:00,
2013-04-30 01:37:00,70.3,61.3,29.05,SSW,205,7.0,17.0,73,0.00,,,0.00,meteohub,2013-04-30 06:37:00,
2013-04-30 01:43:00,70.2,61.5,29.05,South,179,4.0,17.0,74,0.00,,,0.00,meteohub,2013-04-30 06:43:00,
2013-04-30 01:48:00,70.0,61.3,29.05,SW,215,9.0,15.0,74,0.00,,,0.00,meteohub,2013-04-30 06:48:00,
2013-04-30 01:53:00,69.8,61.5,29.06,SSW,204,5.0,14.0,75,0.00,,,0.00,meteohub,2013-04-30 06:53:00,
2013-04-30 01:58:00,69.6,61.3,29.06,SSW,207,0.0,15.0,75,0.00,,,0.00,meteohub,2013-04-30 06:58:00,
2013-04-30 02:03:00,69.4,61.2,29.06,South,175,2.0,15.0,75,0.00,,,0.00,meteohub,2013-04-30 07:03:00,
2013-04-30 02:08:00,69.4,61.5,29.05,SSW,196,2.0,14.0,76,0.00,,,0.00,meteohub,2013-04-30 07:08:00,
2013-04-30 02:13:00,69.4,61.5,29.05,SW,223,6.0,12.0,76,0.00,,,0.00,meteohub,2013-04-30 07:13:00,
2013-04-30 02:18:00,69.4,61.5,29.05,South,182,5.0,13.0,76,0.00,,,0.00,meteohub,2013-04-30 07:18:00,
2013-04-30 02:23:00,69.4,61.5,29.05,SSW,196,12.0,16.0,76,0.00,,,0.00,meteohub,2013-04-30 07:23:00,
2013-04-30 02:28:00,69.4,61.5,29.05,SW,221,3.0,16.0,76,0.00,,,0.00,meteohub,2013-04-30 07:28:00,
2013-04-30 02:33:00,69.3,61.7,29.05,South,191,6.0,16.0,77,0.00,,,0.00,meteohub,2013-04-30 07:33:00,
2013-04-30 02:38:00,69.3,61.7,29.05,SW,217,0.0,13.0,77,0.00,,,0.00,meteohub,2013-04-30 07:38:00,
2013-04-30 02:43:00,69.1,61.5,29.05,SSW,207,3.0,15.0,77,0.00,,,0.00,meteohub,2013-04-30 07:43:00,
2013-04-30 02:48:00,69.1,61.5,29.05,SW,215,3.0,15.0,77,0.00,,,0.00,meteohub,2013-04-30 07:48:00,
2013-04-30 02:53:00,68.7,61.2,29.05,SSW,207,0.0,15.0,77,0.00,,,0.00,meteohub,2013-04-30 07:53:00,
2013-04-30 02:58:00,68.5,61.3,29.05,SSE,154,6.0,15.0,78,0.00,,,0.00,meteohub,2013-04-30 07:58:00,
2013-04-30 03:03:00,68.4,61.2,29.05,SSW,208,0.0,16.0,78,0.00,,,0.00,meteohub,2013-04-30 08:03:00,
2013-04-30 03:08:00,68.4,61.5,29.05,SSE,161,3.0,16.0,79,0.00,,,0.00,meteohub,2013-04-30 08:08:00,
2013-04-30 03:13:00,68.2,61.3,29.06,SW,224,5.0,16.0,79,0.00,,,0.00,meteohub,2013-04-30 08:13:00,
2013-04-30 03:18:00,68.0,61.2,29.06,SSW,196,0.0,14.0,79,0.00,,,0.00,meteohub,2013-04-30 08:18:00,
2013-04-30 03:23:00,67.8,61.3,29.06,SW,214,4.0,14.0,80,0.00,,,0.00,meteohub,2013-04-30 08:23:00,
2013-04-30 03:28:00,67.6,61.2,29.06,SSW,210,7.0,12.0,80,0.00,,,0.00,meteohub,2013-04-30 08:28:00,
2013-04-30 03:33:00,67.6,61.2,29.06,SSW,207,0.0,12.0,80,0.00,,,0.00,meteohub,2013-04-30 08:33:00,
2013-04-30 03:38:00,67.5,61.2,29.06,SSW,205,5.0,11.0,80,0.00,,,0.00,meteohub,2013-04-30 08:38:00,
2013-04-30 03:43:00,67.3,61.2,29.06,SW,223,4.0,10.0,81,0.00,,,0.00,meteohub,2013-04-30 08:43:00,
2013-04-30 03:48:00,67.1,61.2,29.06,South,182,4.0,10.0,81,0.00,,,0.00,meteohub,2013-04-30 08:48:00,
2013-04-30 03:53:00,66.9,61.0,29.06,SW,235,2.0,11.0,81,0.00,,,0.00,meteohub,2013-04-30 08:53:00,
2013-04-30 03:58:00,66.7,60.8,29.06,SSW,209,5.0,11.0,81,0.00,,,0.00,meteohub,2013-04-30 08:58:00,
2013-04-30 04:03:00,66.7,60.8,29.06,SSW,200,0.0,11.0,81,0.00,,,0.00,meteohub,2013-04-30 09:03:00,
2013-04-30 04:09:00,66.6,61.0,29.06,SSW,205,2.0,14.0,82,0.00,,,0.00,meteohub,2013-04-30 09:09:00,
2013-04-30 04:14:00,66.6,61.0,29.07,SSW,207,1.0,14.0,82,0.00,,,0.00,meteohub,2013-04-30 09:14:00,
2013-04-30 04:19:00,66.4,60.8,29.07,SSW,196,0.0,10.0,82,0.00,,,0.00,meteohub,2013-04-30 09:19:00,
2013-04-30 04:24:00,66.2,60.6,29.07,SSW,198,3.0,10.0,82,0.00,,,0.00,meteohub,2013-04-30 09:24:00,
2013-04-30 04:29:00,66.0,60.4,29.06,SW,219,3.0,10.0,82,0.00,,,0.00,meteohub,2013-04-30 09:29:00,
2013-04-30 04:34:00,66.0,60.6,29.06,SSW,207,11.0,11.0,83,0.00,,,0.00,meteohub,2013-04-30 09:34:00,
2013-04-30 04:39:00,66.0,60.6,29.07,SSW,198,2.0,11.0,83,0.00,,,0.00,meteohub,2013-04-30 09:39:00,
2013-04-30 04:44:00,66.0,60.6,29.07,SW,234,3.0,11.0,83,0.00,,,0.00,meteohub,2013-04-30 09:44:00,
2013-04-30 04:49:00,65.8,60.6,29.08,SSW,206,1.0,11.0,83,0.00,,,0.00,meteohub,2013-04-30 09:49:00,
2013-04-30 04:54:00,65.8,60.6,29.08,SW,217,0.0,9.0,83,0.00,,,0.00,meteohub,2013-04-30 09:54:00,
2013-04-30 04:59:00,65.7,60.4,29.08,SW,218,4.0,9.0,83,0.00,,,0.00,meteohub,2013-04-30 09:59:00,
2013-04-30 05:04:00,65.7,60.4,29.08,South,179,1.0,7.0,83,0.00,,,0.00,meteohub,2013-04-30 10:04:00,
2013-04-30 05:09:00,65.5,60.3,29.08,SSW,194,6.0,9.0,83,0.00,,,0.00,meteohub,2013-04-30 10:09:00,
2013-04-30 05:14:00,65.5,60.3,29.08,SSW,198,5.0,10.0,83,0.00,,,0.00,meteohub,2013-04-30 10:14:00,
2013-04-30 05:19:00,65.5,60.3,29.08,SSW,209,4.0,10.0,83,0.00,,,0.00,meteohub,2013-04-30 10:19:00,
2013-04-30 05:24:00,65.5,60.3,29.08,SW,233,5.0,10.0,83,0.00,,,0.00,meteohub,2013-04-30 10:24:00,
2013-04-30 05:29:00,65.7,60.4,29.08,SW,222,3.0,11.0,83,0.00,,,0.00,meteohub,2013-04-30 10:29:00,
2013-04-30 05:34:00,65.7,60.1,29.08,SW,226,5.0,11.0,82,0.00,,,0.00,meteohub,2013-04-30 10:34:00,
2013-04-30 05:39:00,65.7,60.1,29.08,SSE,156,6.0,10.0,82,0.00,,,0.00,meteohub,2013-04-30 10:39:00,
2013-04-30 05:44:00,65.5,59.9,29.08,SSW,210,3.0,10.0,82,0.00,,,0.00,meteohub,2013-04-30 10:44:00,
2013-04-30 05:49:00,65.5,60.3,29.08,SSW,203,6.0,10.0,83,0.00,,,0.00,meteohub,2013-04-30 10:49:00,
2013-04-30 05:54:00,65.5,60.3,29.08,SW,235,5.0,10.0,83,0.00,,,0.00,meteohub,2013-04-30 10:54:00,
2013-04-30 05:59:00,65.3,60.1,29.09,SSE,167,7.0,10.0,83,0.00,,,0.00,meteohub,2013-04-30 10:59:00,
2013-04-30 06:04:00,65.1,59.9,29.09,SSW,205,2.0,11.0,83,0.00,,,0.00,meteohub,2013-04-30 11:04:00,
2013-04-30 06:09:00,65.1,59.9,29.09,SSW,205,5.0,11.0,83,0.00,,,0.00,meteohub,2013-04-30 11:09:00,
2013-04-30 06:14:00,65.1,59.9,29.10,South,188,4.0,13.0,83,0.00,,,0.00,meteohub,2013-04-30 11:14:00,
2013-04-30 06:20:00,64.9,59.7,29.10,SSW,202,3.0,13.0,83,0.00,,,0.00,meteohub,2013-04-30 11:20:00,
2013-04-30 06:24:00,64.8,59.9,29.10,South,186,1.0,9.0,84,0.00,,,0.00,meteohub,2013-04-30 11:24:00,
2013-04-30 06:30:00,64.8,59.9,29.10,South,185,1.0,9.0,84,0.00,,,0.00,meteohub,2013-04-30 11:30:00,
2013-04-30 06:35:00,64.6,59.7,29.10,SSW,209,5.0,12.0,84,0.00,,,0.00,meteohub,2013-04-30 11:35:00,
2013-04-30 06:40:00,64.6,59.7,29.10,SSW,196,4.0,12.0,84,0.00,,,0.00,meteohub,2013-04-30 11:40:00,
2013-04-30 06:45:00,64.6,59.7,29.11,SSW,194,5.0,12.0,84,0.00,,,0.00,meteohub,2013-04-30 11:45:00,
2013-04-30 06:50:00,64.6,59.7,29.11,SSW,212,2.0,12.0,84,0.00,,,0.00,meteohub,2013-04-30 11:50:00,
2013-04-30 06:55:00,64.6,59.7,29.12,SSW,198,4.0,12.0,84,0.00,,,0.00,meteohub,2013-04-30 11:55:00,
2013-04-30 07:00:00,64.8,59.9,29.12,SSW,201,3.0,10.0,84,0.00,,,0.00,meteohub,2013-04-30 12:00:00,
2013-04-30 07:05:00,64.8,59.9,29.12,SSW,205,3.0,11.0,84,0.00,,,0.00,meteohub,2013-04-30 12:05:00,
2013-04-30 07:10:00,64.8,59.9,29.12,SW,233,0.0,11.0,84,0.00,,,0.00,meteohub,2013-04-30 12:10:00,
2013-04-30 07:15:00,64.9,59.9,29.12,SSW,213,4.0,11.0,84,0.00,,,0.00,meteohub,2013-04-30 12:15:00,
2013-04-30 07:20:00,65.1,60.1,29.13,SW,234,0.0,9.0,84,0.00,,,0.00,meteohub,2013-04-30 12:20:00,
2013-04-30 07:25:00,65.1,60.1,29.13,SW,225,2.0,11.0,84,0.00,,,0.00,meteohub,2013-04-30 12:25:00,
2013-04-30 07:30:00,65.3,60.3,29.13,SW,223,4.0,11.0,84,0.00,,,0.00,meteohub,2013-04-30 12:30:00,
2013-04-30 07:35:00,65.5,60.3,29.13,South,184,6.0,10.0,83,0.00,,,0.00,meteohub,2013-04-30 12:35:00,
2013-04-30 07:40:00,65.7,60.4,29.13,SSW,194,3.0,10.0,83,0.00,,,0.00,meteohub,2013-04-30 12:40:00,
2013-04-30 07:45:00,65.7,60.4,29.13,SSW,211,1.0,10.0,83,0.00,,,0.00,meteohub,2013-04-30 12:45:00,
2013-04-30 07:50:00,65.8,60.6,29.13,SSW,205,1.0,10.0,83,0.00,,,0.00,meteohub,2013-04-30 12:50:00,
2013-04-30 07:55:00,66.0,60.6,29.13,SW,233,1.0,10.0,83,0.00,,,0.00,meteohub,2013-04-30 12:55:00,
2013-04-30 08:00:00,66.2,60.6,29.13,South,187,2.0,9.0,82,0.00,,,0.00,meteohub,2013-04-30 13:00:00,
2013-04-30 08:06:00,66.4,60.8,29.13,South,175,10.0,10.0,82,0.00,,,0.00,meteohub,2013-04-30 13:06:00,
2013-04-30 08:11:00,66.6,61.0,29.13,South,191,5.0,10.0,82,0.00,,,0.00,meteohub,2013-04-30 13:11:00,
2013-04-30 08:16:00,66.7,60.8,29.13,SSW,198,0.0,10.0,81,0.00,,,0.00,meteohub,2013-04-30 13:16:00,
2013-04-30 08:21:00,66.7,60.8,29.13,SSW,200,7.0,11.0,81,0.00,,,0.00,meteohub,2013-04-30 13:21:00,
2013-04-30 08:26:00,67.1,61.2,29.14,SSW,196,2.0,12.0,81,0.00,,,0.00,meteohub,2013-04-30 13:26:00,
2013-04-30 08:31:00,67.5,61.2,29.14,SW,226,10.0,14.0,80,0.00,,,0.00,meteohub,2013-04-30 13:31:00,
2013-04-30 08:36:00,67.8,61.0,29.14,SSW,205,4.0,15.0,79,0.00,,,0.00,meteohub,2013-04-30 13:36:00,
2013-04-30 08:41:00,68.2,61.0,29.14,West,264,1.0,15.0,78,0.00,,,0.00,meteohub,2013-04-30 13:41:00,
2013-04-30 08:46:00,68.5,61.0,29.13,SSW,213,3.0,15.0,77,0.00,,,0.00,meteohub,2013-04-30 13:46:00,
2013-04-30 08:51:00,69.1,61.2,29.13,WSW,239,4.0,14.0,76,0.00,,,0.00,meteohub,2013-04-30 13:51:00,
2013-04-30 08:56:00,69.4,60.8,29.13,SSW,206,4.0,14.0,74,0.00,,,0.00,meteohub,2013-04-30 13:56:00,
2013-04-30 09:01:00,70.0,60.6,29.14,SW,221,6.0,16.0,72,0.00,,,0.00,meteohub,2013-04-30 14:01:00,
2013-04-30 09:06:00,70.5,60.6,29.14,SW,230,13.0,17.0,71,0.00,,,0.00,meteohub,2013-04-30 14:06:00,
2013-04-30 09:11:00,70.9,60.6,29.14,SSW,206,12.0,17.0,70,0.00,,,0.00,meteohub,2013-04-30 14:11:00,
2013-04-30 09:16:00,71.2,60.6,29.14,SW,227,5.0,17.0,69,0.00,,,0.00,meteohub,2013-04-30 14:16:00,
2013-04-30 09:21:00,71.8,60.3,29.14,SW,231,11.0,17.0,67,0.00,,,0.00,meteohub,2013-04-30 14:21:00,
2013-04-30 09:26:00,72.1,60.6,29.14,WSW,238,3.0,18.0,67,0.00,,,0.00,meteohub,2013-04-30 14:26:00,
2013-04-30 09:31:00,72.3,60.8,29.14,SW,221,11.0,18.0,67,0.00,,,0.00,meteohub,2013-04-30 14:31:00,
2013-04-30 09:36:00,72.5,60.4,29.14,SW,225,0.0,19.0,66,0.00,,,0.00,meteohub,2013-04-30 14:36:00,
2013-04-30 09:41:00,72.9,60.4,29.14,SW,216,16.0,19.0,65,0.00,,,0.00,meteohub,2013-04-30 14:41:00,
2013-04-30 09:46:00,73.2,60.8,29.14,SSE,165,11.0,19.0,65,0.00,,,0.00,meteohub,2013-04-30 14:46:00,
2013-04-30 09:51:00,73.6,60.6,29.14,SW,229,6.0,20.0,64,0.00,,,0.00,meteohub,2013-04-30 14:51:00,
2013-04-30 09:56:00,73.9,60.6,29.14,SW,215,10.0,20.0,63,0.00,,,0.00,meteohub,2013-04-30 14:56:00,
2013-04-30 10:01:00,74.5,60.6,29.15,SW,227,6.0,20.0,62,0.00,,,0.00,meteohub,2013-04-30 15:01:00,
2013-04-30 10:06:00,74.7,60.3,29.15,SSW,209,11.0,21.0,61,0.00,,,0.00,meteohub,2013-04-30 15:06:00,
2013-04-30 10:11:00,75.0,61.2,29.15,SW,234,7.0,21.0,62,0.00,,,0.00,meteohub,2013-04-30 15:11:00,
2013-04-30 10:16:00,75.4,60.4,29.15,SW,215,9.0,21.0,60,0.00,,,0.00,meteohub,2013-04-30 15:16:00,
2013-04-30 10:22:00,75.6,60.6,29.15,SW,219,5.0,17.0,60,0.00,,,0.00,meteohub,2013-04-30 15:22:00,
2013-04-30 10:27:00,76.1,60.8,29.15,SW,227,5.0,17.0,59,0.00,,,0.00,meteohub,2013-04-30 15:27:00,
2013-04-30 10:32:00,76.5,60.1,29.15,WSW,237,6.0,17.0,57,0.00,,,0.00,meteohub,2013-04-30 15:32:00,
2013-04-30 10:37:00,76.8,59.9,29.15,West,272,7.0,17.0,56,0.00,,,0.00,meteohub,2013-04-30 15:37:00,
2013-04-30 10:42:00,77.0,59.0,29.15,SW,227,15.0,17.0,54,0.00,,,0.00,meteohub,2013-04-30 15:42:00,
2013-04-30 10:48:00,77.2,60.3,29.15,SW,223,1.0,17.0,56,0.00,,,0.00,meteohub,2013-04-30 15:48:00,
2013-04-30 10:53:00,77.7,59.2,29.15,SE,130,7.0,17.0,53,0.00,,,0.00,meteohub,2013-04-30 15:53:00,
2013-04-30 10:58:00,78.1,59.5,29.15,SW,227,9.0,18.0,53,0.00,,,0.00,meteohub,2013-04-30 15:58:00,
2013-04-30 11:03:00,78.3,59.2,29.15,SSW,210,10.0,18.0,52,0.00,,,0.00,meteohub,2013-04-30 16:03:00,
2013-04-30 11:08:00,78.4,58.8,29.15,SSW,213,10.0,18.0,51,0.00,,,0.00,meteohub,2013-04-30 16:08:00,
2013-04-30 11:13:00,78.3,58.6,29.15,WSW,246,3.0,20.0,51,0.00,,,0.00,meteohub,2013-04-30 16:13:00,
2013-04-30 11:18:00,78.4,59.4,29.15,SSW,207,7.0,20.0,52,0.00,,,0.00,meteohub,2013-04-30 16:18:00,
2013-04-30 11:24:00,78.8,59.2,29.15,SSW,213,3.0,20.0,51,0.00,,,0.00,meteohub,2013-04-30 16:24:00,
2013-04-30 11:29:00,79.2,59.0,29.15,SW,220,7.0,19.0,50,0.00,,,0.00,meteohub,2013-04-30 16:29:00,
2013-04-30 11:34:00,79.2,58.3,29.15,SW,216,10.0,15.0,49,0.00,,,0.00,meteohub,2013-04-30 16:34:00,
2013-04-30 11:39:00,79.5,58.6,29.15,WSW,250,11.0,18.0,49,0.00,,,0.00,meteohub,2013-04-30 16:39:00,
2013-04-30 11:44:00,79.9,59.0,29.15,SSW,200,14.0,20.0,49,0.00,,,0.00,meteohub,2013-04-30 16:44:00,
2013-04-30 11:49:00,80.1,58.1,29.15,SSW,211,17.0,20.0,47,0.00,,,0.00,meteohub,2013-04-30 16:49:00,
2013-04-30 11:54:00,80.1,58.6,29.15,SW,229,10.0,20.0,48,0.00,,,0.00,meteohub,2013-04-30 16:54:00,
2013-04-30 11:59:00,80.2,58.1,29.15,WSW,257,10.0,24.0,47,0.00,,,0.00,meteohub,2013-04-30 16:59:00,
2013-04-30 12:04:00,80.4,58.3,29.15,SSW,213,3.0,24.0,47,0.00,,,0.00,meteohub,2013-04-30 17:04:00,
2013-04-30 12:09:00,81.0,58.3,29.14,SW,236,9.0,18.0,46,0.00,,,0.00,meteohub,2013-04-30 17:09:00,
2013-04-30 12:14:00,81.3,58.6,29.14,South,191,11.0,18.0,46,0.00,,,0.00,meteohub,2013-04-30 17:14:00,
2013-04-30 12:19:00,81.7,57.6,29.14,SW,233,9.0,18.0,44,0.00,,,0.00,meteohub,2013-04-30 17:19:00,
2013-04-30 12:24:00,81.9,56.5,29.14,WSW,252,6.0,18.0,42,0.00,,,0.00,meteohub,2013-04-30 17:24:00,
2013-04-30 12:29:00,82.0,55.9,29.14,SW,232,5.0,18.0,41,0.00,,,0.00,meteohub,2013-04-30 17:29:00,
2013-04-30 12:34:00,82.2,56.1,29.14,SW,231,6.0,18.0,41,0.00,,,0.00,meteohub,2013-04-30 17:34:00,
2013-04-30 12:39:00,82.6,55.8,29.14,WSW,247,14.0,18.0,40,0.00,,,0.00,meteohub,2013-04-30 17:39:00,
2013-04-30 12:44:00,82.8,56.7,29.13,SW,230,6.0,20.0,41,0.00,,,0.00,meteohub,2013-04-30 17:44:00,
2013-04-30 12:49:00,82.9,56.8,29.13,SW,217,7.0,20.0,41,0.00,,,0.00,meteohub,2013-04-30 17:49:00,
2013-04-30 12:54:00,83.1,57.0,29.13,WSW,244,1.0,20.0,41,0.00,,,0.00,meteohub,2013-04-30 17:54:00,
2013-04-30 12:59:00,83.5,57.4,29.12,SW,227,9.0,15.0,41,0.00,,,0.00,meteohub,2013-04-30 17:59:00,
2013-04-30 13:04:00,83.7,56.1,29.12,WSW,243,16.0,16.0,39,0.00,,,0.00,meteohub,2013-04-30 18:04:00,
2013-04-30 13:09:00,83.7,54.0,29.12,SSW,196,0.0,17.0,36,0.00,,,0.00,meteohub,2013-04-30 18:09:00,
2013-04-30 13:14:00,83.7,53.1,29.12,SSW,209,10.0,18.0,35,0.00,,,0.00,meteohub,2013-04-30 18:14:00,
2013-04-30 13:19:00,83.7,54.0,29.12,SW,215,7.0,24.0,36,0.00,,,0.00,meteohub,2013-04-30 18:19:00,
2013-04-30 13:24:00,83.8,54.9,29.12,South,191,4.0,24.0,37,0.00,,,0.00,meteohub,2013-04-30 18:24:00,
2013-04-30 13:29:00,83.8,53.2,29.12,SSW,211,0.0,24.0,35,0.00,,,0.00,meteohub,2013-04-30 18:29:00,
2013-04-30 13:35:00,84.0,54.1,29.12,SSW,198,12.0,21.0,36,0.00,,,0.00,meteohub,2013-04-30 18:35:00,
2013-04-30 13:40:00,84.0,53.4,29.11,WSW,239,5.0,20.0,35,0.00,,,0.00,meteohub,2013-04-30 18:40:00,
2013-04-30 13:45:00,84.2,53.6,29.11,WSW,238,6.0,20.0,35,0.00,,,0.00,meteohub,2013-04-30 18:45:00,
2013-04-30 13:50:00,84.4,53.8,29.11,SSW,205,3.0,19.0,35,0.00,,,0.00,meteohub,2013-04-30 18:50:00,
2013-04-30 13:55:00,84.9,55.0,29.12,SW,225,18.0,26.0,36,0.00,,,0.00,meteohub,2013-04-30 18:55:00,
2013-04-30 14:00:00,84.7,54.1,29.12,SSW,205,5.0,26.0,35,0.00,,,0.00,meteohub,2013-04-30 19:00:00,
2013-04-30 14:05:00,84.7,54.9,29.12,SE,134,4.0,20.0,36,0.00,,,0.00,meteohub,2013-04-30 19:05:00,
2013-04-30 14:10:00,84.7,53.2,29.12,WSW,244,9.0,20.0,34,0.00,,,0.00,meteohub,2013-04-30 19:10:00,
2013-04-30 14:15:00,84.9,54.1,29.12,SSW,193,12.0,25.0,35,0.00,,,0.00,meteohub,2013-04-30 19:15:00,
2013-04-30 14:20:00,84.9,53.4,29.12,South,169,10.0,25.0,34,0.00,,,0.00,meteohub,2013-04-30 19:20:00,
2013-04-30 14:25:00,84.9,53.4,29.12,South,185,5.0,25.0,34,0.00,,,0.00,meteohub,2013-04-30 19:25:00,
2013-04-30 14:30:00,84.9,52.5,29.12,SW,234,3.0,22.0,33,0.00,,,0.00,meteohub,2013-04-30 19:30:00,
2013-04-30 14:35:00,84.9,52.5,29.12,SSW,208,10.0,19.0,33,0.00,,,0.00,meteohub,2013-04-30 19:35:00,
2013-04-30 14:40:00,85.6,55.6,29.12,SW,222,6.0,19.0,36,0.00,,,0.00,meteohub,2013-04-30 19:40:00,
2013-04-30 14:45:00,85.6,54.9,29.12,South,177,2.0,19.0,35,0.00,,,0.00,meteohub,2013-04-30 19:45:00,
2013-04-30 14:50:00,85.5,55.4,29.12,SSW,200,11.0,19.0,36,0.00,,,0.00,meteohub,2013-04-30 19:50:00,
2013-04-30 14:55:00,85.6,54.0,29.12,SW,230,6.0,19.0,34,0.00,,,0.00,meteohub,2013-04-30 19:55:00,
2013-04-30 15:00:00,85.6,53.2,29.12,SSW,209,8.0,18.0,33,0.00,,,0.00,meteohub,2013-04-30 20:00:00,
2013-04-30 15:05:00,85.6,53.2,29.12,SSE,168,15.0,26.0,33,0.00,,,0.00,meteohub,2013-04-30 20:05:00,
2013-04-30 15:10:00,85.5,53.1,29.12,SW,221,13.0,26.0,33,0.00,,,0.00,meteohub,2013-04-30 20:10:00,
2013-04-30 15:16:00,85.5,53.1,29.11,SSW,192,3.0,26.0,33,0.00,,,0.00,meteohub,2013-04-30 20:16:00,
2013-04-30 15:21:00,85.5,54.0,29.11,SSW,192,1.0,20.0,34,0.00,,,0.00,meteohub,2013-04-30 20:21:00,
2013-04-30 15:26:00,85.5,53.1,29.11,SSE,149,10.0,19.0,33,0.00,,,0.00,meteohub,2013-04-30 20:26:00,
2013-04-30 15:31:00,85.5,53.1,29.11,South,173,6.0,22.0,33,0.00,,,0.00,meteohub,2013-04-30 20:31:00,
2013-04-30 15:36:00,85.6,53.2,29.12,SSW,211,7.0,22.0,33,0.00,,,0.00,meteohub,2013-04-30 20:36:00,
2013-04-30 15:41:00,85.5,54.0,29.12,South,188,6.0,22.0,34,0.00,,,0.00,meteohub,2013-04-30 20:41:00,
2013-04-30 15:46:00,85.5,54.0,29.12,SSW,197,13.0,20.0,34,0.00,,,0.00,meteohub,2013-04-30 20:46:00,
2013-04-30 15:51:00,85.5,54.0,29.12,SSW,197,4.0,22.0,34,0.00,,,0.00,meteohub,2013-04-30 20:51:00,
2013-04-30 15:56:00,85.5,53.1,29.12,South,180,5.0,22.0,33,0.00,,,0.00,meteohub,2013-04-30 20:56:00,
2013-04-30 16:01:00,85.6,54.9,29.12,SSE,157,6.0,22.0,35,0.00,,,0.00,meteohub,2013-04-30 21:01:00,
2013-04-30 16:06:00,85.6,54.9,29.12,South,190,11.0,21.0,35,0.00,,,0.00,meteohub,2013-04-30 21:06:00,
2013-04-30 16:11:00,85.8,54.1,29.12,SW,214,11.0,16.0,34,0.00,,,0.00,meteohub,2013-04-30 21:11:00,
2013-04-30 16:16:00,85.6,53.2,29.12,SW,220,12.0,19.0,33,0.00,,,0.00,meteohub,2013-04-30 21:16:00,
2013-04-30 16:21:00,85.8,55.0,29.12,SSW,207,13.0,19.0,35,0.00,,,0.00,meteohub,2013-04-30 21:21:00,
2013-04-30 16:26:00,85.8,55.0,29.12,SSW,212,5.0,18.0,35,0.00,,,0.00,meteohub,2013-04-30 21:26:00,
2013-04-30 16:31:00,86.2,54.5,29.12,SW,228,0.0,20.0,34,0.00,,,0.00,meteohub,2013-04-30 21:31:00,
2013-04-30 16:36:00,86.4,54.7,29.12,SSE,163,5.0,20.0,34,0.00,,,0.00,meteohub,2013-04-30 21:36:00,
2013-04-30 16:41:00,86.4,53.1,29.12,South,182,11.0,17.0,32,0.00,,,0.00,meteohub,2013-04-30 21:41:00,
2013-04-30 16:46:00,86.2,52.9,29.12,South,188,5.0,17.0,32,0.00,,,0.00,meteohub,2013-04-30 21:46:00,
2013-04-30 16:51:00,86.2,52.0,29.13,SSW,196,10.0,18.0,31,0.00,,,0.00,meteohub,2013-04-30 21:51:00,
2013-04-30 16:56:00,86.2,52.9,29.13,SW,217,12.0,18.0,32,0.00,,,0.00,meteohub,2013-04-30 21:56:00,
2013-04-30 17:01:00,86.0,53.6,29.13,SW,221,3.0,18.0,33,0.00,,,0.00,meteohub,2013-04-30 22:01:00,
2013-04-30 17:06:00,86.0,52.7,29.13,South,179,9.0,18.0,32,0.00,,,0.00,meteohub,2013-04-30 22:06:00,
2013-04-30 17:11:00,86.0,54.3,29.13,WSW,239,3.0,18.0,34,0.00,,,0.00,meteohub,2013-04-30 22:11:00,
2013-04-30 17:16:00,86.2,54.5,29.13,South,175,6.0,15.0,34,0.00,,,0.00,meteohub,2013-04-30 22:16:00,
2013-04-30 17:21:00,86.0,54.3,29.13,South,169,7.0,12.0,34,0.00,,,0.00,meteohub,2013-04-30 22:21:00,
2013-04-30 17:26:00,85.8,54.1,29.13,SW,217,5.0,15.0,34,0.00,,,0.00,meteohub,2013-04-30 22:26:00,
2013-04-30 17:32:00,85.6,53.2,29.13,SW,222,3.0,15.0,33,0.00,,,0.00,meteohub,2013-04-30 22:32:00,
2013-04-30 17:37:00,85.6,54.9,29.13,SSW,205,0.0,16.0,35,0.00,,,0.00,meteohub,2013-04-30 22:37:00,
2013-04-30 17:42:00,85.5,54.7,29.13,SW,219,5.0,16.0,35,0.00,,,0.00,meteohub,2013-04-30 22:42:00,
2013-04-30 17:47:00,85.3,54.5,29.13,SW,215,13.0,13.0,35,0.00,,,0.00,meteohub,2013-04-30 22:47:00,
2013-04-30 17:52:00,85.3,54.5,29.13,SSW,194,10.0,14.0,35,0.00,,,0.00,meteohub,2013-04-30 22:52:00,
2013-04-30 17:57:00,84.9,54.1,29.13,SW,214,5.0,14.0,35,0.00,,,0.00,meteohub,2013-04-30 22:57:00,
2013-04-30 18:02:00,84.9,54.1,29.13,SSW,201,6.0,14.0,35,0.00,,,0.00,meteohub,2013-04-30 23:02:00,
2013-04-30 18:07:00,84.7,54.9,29.13,SW,215,3.0,14.0,36,0.00,,,0.00,meteohub,2013-04-30 23:07:00,
2013-04-30 18:12:00,84.6,54.7,29.13,SW,234,4.0,12.0,36,0.00,,,0.00,meteohub,2013-04-30 23:12:00,
2013-04-30 18:17:00,84.6,54.7,29.13,SSW,199,7.0,12.0,36,0.00,,,0.00,meteohub,2013-04-30 23:17:00,
2013-04-30 18:22:00,84.6,55.4,29.13,SSW,193,5.0,12.0,37,0.00,,,0.00,meteohub,2013-04-30 23:22:00,
2013-04-30 18:27:00,84.6,54.7,29.13,SW,227,2.0,9.0,36,0.00,,,0.00,meteohub,2013-04-30 23:27:00,
2013-04-30 18:32:00,84.4,55.2,29.13,South,185,0.0,9.0,37,0.00,,,0.00,meteohub,2013-04-30 23:32:00,
2013-04-30 18:37:00,84.0,55.8,29.13,SW,216,2.0,9.0,38,0.00,,,0.00,meteohub,2013-04-30 23:37:00,
2013-04-30 18:42:00,83.8,55.6,29.13,SW,217,4.0,9.0,38,0.00,,,0.00,meteohub,2013-04-30 23:42:00,
2013-04-30 18:47:00,83.7,56.1,29.13,South,184,2.0,7.0,39,0.00,,,0.00,meteohub,2013-04-30 23:47:00,
2013-04-30 18:52:00,83.3,55.8,29.13,South,182,4.0,7.0,39,0.00,,,0.00,meteohub,2013-04-30 23:52:00,
2013-04-30 18:57:00,82.9,56.1,29.13,South,189,0.0,7.0,40,0.00,,,0.00,meteohub,2013-04-30 23:57:00,
2013-04-30 19:02:00,82.8,55.2,29.13,SSW,193,0.0,7.0,39,0.00,,,0.00,meteohub,2013-05-01 00:02:00,
2013-04-30 19:07:00,82.6,55.0,29.13,South,190,0.0,7.0,39,0.00,,,0.00,meteohub,2013-05-01 00:07:00,
2013-04-30 19:12:00,82.2,55.6,29.13,South,190,0.0,6.0,40,0.00,,,0.00,meteohub,2013-05-01 00:12:00,
2013-04-30 19:17:00,82.0,55.9,29.13,South,182,0.0,6.0,41,0.00,,,0.00,meteohub,2013-05-01 00:17:00,
2013-04-30 19:22:00,81.9,55.9,29.13,South,186,5.0,6.0,41,0.00,,,0.00,meteohub,2013-05-01 00:22:00,
2013-04-30 19:28:00,81.7,55.8,29.13,SSW,202,0.0,6.0,41,0.00,,,0.00,meteohub,2013-05-01 00:28:00,
2013-04-30 19:33:00,81.3,55.4,29.13,SSW,198,3.0,6.0,41,0.00,,,0.00,meteohub,2013-05-01 00:33:00,
2013-04-30 19:38:00,81.1,55.2,29.13,SSW,194,4.0,6.0,41,0.00,,,0.00,meteohub,2013-05-01 00:38:00,
2013-04-30 19:43:00,81.0,55.0,29.13,South,190,0.0,6.0,41,0.00,,,0.00,meteohub,2013-05-01 00:43:00,
2013-04-30 19:48:00,80.6,55.4,29.14,South,190,0.0,6.0,42,0.00,,,0.00,meteohub,2013-05-01 00:48:00,
2013-04-30 19:53:00,80.4,55.2,29.14,South,190,0.0,5.0,42,0.00,,,0.00,meteohub,2013-05-01 00:53:00,
2013-04-30 19:58:00,80.2,55.8,29.14,South,190,0.0,4.0,43,0.00,,,0.00,meteohub,2013-05-01 00:58:00,
2013-04-30 20:03:00,79.9,55.9,29.14,South,190,0.0,0.0,44,0.00,,,0.00,meteohub,2013-05-01 01:03:00,
2013-04-30 20:08:00,79.5,55.8,29.14,South,190,0.0,0.0,44,0.00,,,0.00,meteohub,2013-05-01 01:08:00,
2013-04-30 20:13:00,79.2,55.9,29.14,South,190,0.0,0.0,45,0.00,,,0.00,meteohub,2013-05-01 01:13:00,
2013-04-30 20:18:00,78.8,55.6,29.14,South,190,0.0,1.0,45,0.00,,,0.00,meteohub,2013-05-01 01:18:00,
2013-04-30 20:23:00,78.4,55.4,29.14,South,191,0.0,1.0,45,0.00,,,0.00,meteohub,2013-05-01 01:23:00,
2013-04-30 20:28:00,78.1,55.6,29.14,South,191,0.0,1.0,46,0.00,,,0.00,meteohub,2013-05-01 01:28:00,
2013-04-30 20:33:00,77.5,55.0,29.15,South,190,0.0,4.0,46,0.00,,,0.00,meteohub,2013-05-01 01:33:00,
2013-04-30 20:38:00,77.4,55.0,29.15,South,190,0.0,4.0,46,0.00,,,0.00,meteohub,2013-05-01 01:38:00,
2013-04-30 20:43:00,77.2,55.4,29.15,South,191,0.0,1.0,47,0.00,,,0.00,meteohub,2013-05-01 01:43:00,
2013-04-30 20:48:00,76.8,55.0,29.16,South,191,0.0,2.0,47,0.00,,,0.00,meteohub,2013-05-01 01:48:00,
2013-04-30 20:53:00,76.6,54.9,29.16,South,191,0.0,2.0,47,0.00,,,0.00,meteohub,2013-05-01 01:53:00,
2013-04-30 20:58:00,76.3,54.5,29.16,South,191,0.0,3.0,47,0.00,,,0.00,meteohub,2013-05-01 01:58:00,
2013-04-30 21:03:00,75.9,54.3,29.16,SSW,192,3.0,4.0,47,0.00,,,0.00,meteohub,2013-05-01 02:03:00,
2013-04-30 21:08:00,75.9,54.3,29.16,SSW,198,3.0,4.0,47,0.00,,,0.00,meteohub,2013-05-01 02:08:00,
2013-04-30 21:13:00,75.7,54.1,29.16,SW,215,3.0,4.0,47,0.00,,,0.00,meteohub,2013-05-01 02:13:00,
2013-04-30 21:18:00,75.6,54.5,29.17,SW,229,2.0,4.0,48,0.00,,,0.00,meteohub,2013-05-01 02:18:00,
2013-04-30 21:23:00,75.4,53.8,29.17,WSW,247,0.0,6.0,47,0.00,,,0.00,meteohub,2013-05-01 02:23:00,
2013-04-30 21:29:00,75.4,54.3,29.17,SSW,213,0.0,6.0,48,0.00,,,0.00,meteohub,2013-05-01 02:29:00,
2013-04-30 21:34:00,75.0,54.0,29.17,SSW,199,4.0,6.0,48,0.00,,,0.00,meteohub,2013-05-01 02:34:00,
2013-04-30 21:39:00,74.8,54.3,29.17,South,184,4.0,6.0,49,0.00,,,0.00,meteohub,2013-05-01 02:39:00,
2013-04-30 21:44:00,74.7,54.9,29.17,South,184,0.0,5.0,50,0.00,,,0.00,meteohub,2013-05-01 02:44:00,
2013-04-30 21:49:00,74.3,54.5,29.17,SSW,213,0.0,5.0,50,0.00,,,0.00,meteohub,2013-05-01 02:49:00,
2013-04-30 21:54:00,73.9,54.1,29.17,SSW,208,0.0,4.0,50,0.00,,,0.00,meteohub,2013-05-01 02:54:00,
2013-04-30 21:59:00,73.8,54.5,29.18,SSW,196,0.0,4.0,51,0.00,,,0.00,meteohub,2013-05-01 02:59:00,
2013-04-30 22:04:00,73.6,54.3,29.18,SW,221,0.0,4.0,51,0.00,,,0.00,meteohub,2013-05-01 03:04:00,
2013-04-30 22:09:00,73.4,54.1,29.18,SW,234,0.0,5.0,51,0.00,,,0.00,meteohub,2013-05-01 03:09:00,
2013-04-30 22:14:00,73.2,54.5,29.18,South,186,2.0,5.0,52,0.00,,,0.00,meteohub,2013-05-01 03:14:00,
2013-04-30 22:19:00,72.9,54.7,29.19,SE,132,4.0,5.0,53,0.00,,,0.00,meteohub,2013-05-01 03:19:00,
2013-04-30 22:24:00,72.1,55.0,29.18,SE,140,3.0,5.0,55,0.00,,,0.00,meteohub,2013-05-01 03:24:00,
2013-04-30 22:29:00,71.8,54.3,29.19,SSW,204,1.0,5.0,54,0.00,,,0.00,meteohub,2013-05-01 03:29:00,
2013-04-30 22:34:00,71.6,53.6,29.19,SSW,202,4.0,5.0,53,0.00,,,0.00,meteohub,2013-05-01 03:34:00,
2013-04-30 22:39:00,71.6,53.6,29.20,South,169,3.0,5.0,53,0.00,,,0.00,meteohub,2013-05-01 03:39:00,
2013-04-30 22:44:00,71.8,53.8,29.20,South,170,4.0,6.0,53,0.00,,,0.00,meteohub,2013-05-01 03:44:00,
2013-04-30 22:49:00,71.8,53.8,29.20,SSW,192,0.0,9.0,53,0.00,,,0.00,meteohub,2013-05-01 03:49:00,
2013-04-30 22:54:00,71.8,53.8,29.20,South,173,2.0,9.0,53,0.00,,,0.00,meteohub,2013-05-01 03:54:00,
2013-04-30 22:59:00,71.6,53.6,29.21,South,183,7.0,9.0,53,0.00,,,0.00,meteohub,2013-05-01 03:59:00,
2013-04-30 23:01:00,71.6,53.6,29.21,SSW,192,2.0,9.0,53,0.00,,,0.00,meteohub,2013-05-01 04:01:00,
2013-04-30 23:02:00,71.6,53.6,29.21,South,181,2.0,9.0,53,0.00,,,0.00,meteohub,2013-05-01 04:02:00,
2013-04-30 23:07:00,71.6,53.1,29.21,South,175,4.0,10.0,52,0.00,,,0.00,meteohub,2013-05-01 04:07:00,
2013-04-30 23:12:00,71.8,53.8,29.22,SSE,156,3.0,12.0,53,0.00,,,0.00,meteohub,2013-05-01 04:12:00,
2013-04-30 23:17:00,71.4,53.4,29.22,South,190,5.0,12.0,53,0.00,,,0.00,meteohub,2013-05-01 04:17:00,
2013-04-30 23:22:00,71.4,53.4,29.22,South,177,3.0,12.0,53,0.00,,,0.00,meteohub,2013-05-01 04:22:00,
2013-04-30 23:27:00,71.2,53.2,29.22,South,186,1.0,11.0,53,0.00,,,0.00,meteohub,2013-05-01 04:27:00,
2013-04-30 23:32:00,70.9,53.4,29.22,SSW,192,1.0,11.0,54,0.00,,,0.00,meteohub,2013-05-01 04:32:00,
2013-04-30 23:38:00,70.7,53.8,29.22,South,186,0.0,11.0,55,0.00,,,0.00,meteohub,2013-05-01 04:38:00,
2013-04-30 23:43:00,70.3,53.4,29.22,South,182,0.0,11.0,55,0.00,,,0.00,meteohub,2013-05-01 04:43:00,
2013-04-30 23:48:00,70.2,53.8,29.22,South,182,6.0,10.0,56,0.00,,,0.00,meteohub,2013-05-01 04:48:00,
2013-04-30 23:53:00,70.2,53.8,29.22,South,180,1.0,10.0,56,0.00,,,0.00,meteohub,2013-05-01 04:53:00,
2013-04-30 23:58:00,70.0,53.6,29.23,South,186,4.0,11.0,56,0.00,,,0.00,meteohub,2013-05-01 04:58:00,